CDT,Max TemperatureF,Mean TemperatureF,Min TemperatureF,Max Dew PointF,MeanDew PointF,Min DewpointF,Max Humidity, Mean Humidity, Min Humidity, Max Sea Level PressureIn, Mean Sea Level PressureIn, Min Sea Level PressureIn, Max VisibilityMiles, Mean VisibilityMiles, Min VisibilityMiles, Max Wind SpeedMPH, Mean Wind SpeedMPH, Max Gust SpeedMPH,PrecipitationIn, CloudCover, Events, WindDirDegrees
2013-6-1,77,70,64,73,68,63,100,92,78,29.95,29.88,29.81,10,9,3,23,14,34,1.23,3,Thunderstorm,200
2013-6-2,73,68,62,66,60,57,100,79,57,30.01,29.98,29.93,10,10,10,17,7,22,0.00,4,,323
2013-6-3,75,68,60,63,59,55,88,76,50,30.08,30.01,29.96,10,10,7,10,7,,0.00,3,,26
2013-6-4,80,70,60,64,61,57,94,74,51,30.05,30.00,29.95,10,10,2,12,6,,0.00,2,,58
2013-6-5,84,75,66,72,66,63,94,76,55,29.98,29.90,29.80,10,10,4,10,5,,0.01,1,Thunderstorm,28
2013-6-6,82,74,66,68,64,61,94,73,51,29.88,29.84,29.80,10,10,9,14,9,17,0.00,3,,336
2013-6-7,80,72,64,63,56,52,83,59,37,29.93,29.88,29.84,10,10,10,18,10,23,0.00,2,,331
2013-6-8,80,70,60,61,58,55,94,66,42,29.99,29.95,29.91,10,10,9,13,6,17,0.00,3,,186
2013-6-9,80,72,64,72,66,59,94,83,61,29.96,29.89,29.83,10,10,6,16,7,28,0.02,2,Thunderstorm,160
2013-6-10,91,78,64,72,67,63,100,69,41,29.91,29.87,29.84,10,10,7,18,8,25,0.00,1,,223
2013-6-11,98,84,69,73,70,64,100,67,32,30.01,29.95,29.91,10,10,7,14,5,18,0.00,0,,226
2013-6-12,95,84,73,73,71,70,94,66,46,30.02,29.94,29.87,10,10,9,23,13,29,0.00,0,,211
2013-6-13,89,81,73,73,69,64,89,66,46,29.99,29.93,29.88,10,10,7,20,11,21,0.00,1,,309
2013-6-14,87,76,66,68,62,55,100,62,35,30.07,30.01,29.97,10,10,7,12,4,16,0.00,0,,44
2013-6-15,89,76,64,66,63,57,94,62,33,30.08,30.02,29.94,10,10,9,13,3,18,0.00,0,,163
2013-6-16,89,81,73,72,69,66,88,67,49,30.03,29.98,29.92,10,10,3,15,5,16,0.00,0,,208
2013-6-17,84,76,69,73,71,66,100,85,66,29.95,29.91,29.86,10,10,9,17,6,25,0.16,3,Thunderstorm,206
2013-6-18,84,74,64,70,66,64,100,75,51,30.01,29.95,29.86,10,10,5,10,6,,0.00,1,,357
2013-6-19,89,78,68,70,67,63,94,69,40,30.04,30.01,29.97,10,10,8,16,5,16,0.00,0,Thunderstorm,328
2013-6-20,91,81,71,70,67,63,94,64,38,30.13,30.08,30.04,10,10,9,15,5,20,0.00,0,,155
2013-6-21,93,82,71,72,69,66,94,64,41,30.15,30.10,30.04,10,10,7,17,7,23,0.00,0,,168
2013-6-22,93,83,73,72,68,63,89,64,36,30.13,30.07,30.00,10,10,10,20,10,25,0.00,1,Thunderstorm,166
2013-6-23,91,80,69,72,69,64,94,68,43,30.08,30.03,29.98,10,10,10,17,9,28,0.00,1,Thunderstorm,153
2013-6-24,93,83,73,73,70,66,89,66,41,30.12,30.04,29.98,10,10,7,16,8,20,0.00,1,,196
2013-6-25,93,85,77,73,72,68,89,68,49,30.04,29.97,29.89,10,10,7,20,12,25,0.00,0,,196
2013-6-26,93,85,77,75,73,72,89,68,49,29.93,29.88,29.81,10,10,10,24,13,30,0.00,0,Thunderstorm,206
2013-6-27,98,86,75,81,75,70,94,72,50,29.92,29.88,29.84,10,10,3,20,7,23,0.00,1,Thunderstorm,265
2013-6-28,93,82,71,73,69,63,94,68,36,29.89,29.81,29.73,10,10,8,23,7,34,0.02,1,Thunderstorm,314
2013-6-29,89,79,69,66,60,54,78,57,31,29.80,29.74,29.70,10,10,10,22,10,29,0.00,0,,308
2013-6-30,82,73,64,64,62,59,88,69,48,29.88,29.81,29.74,10,10,10,18,11,24,0.00,2,,333